Location: College Park
(38.9810°N, 76.9370°W)
Time: 16:48:33
(UTC-05:00)

ISS - Pass Details

Date: 09 January 2018
Orbit: 402 x 407 km, 51.6° (Epoch: 18 January)

Event Time Altitude Azimuth Distance (km) Brightness Sun altitude
Exits shadow 05:59:26 11° 357° (N) 1,404 -1.3 -16.6°
Maximum altitude 06:00:20 12° 14° (NNE) 1,351 -1.2 -16.4°
Drops below altitude 10° 06:01:42 10° 39° (NE) 1,467 -0.7 -16.1°
Sets 06:04:52 0° 72° (ENE) 2,327 1.0 -15.5°
